User: anonymous   Login
Location: Unspecified
(0.0000°N, 0.0000°E)
Time: 07:44:23
(UTC+00:00)
Language:

PAKSAT 1R - Orbit

View from above orbital plane
View from above orbital plane
View from above satellite
View from above satellite

Ground track
Ground track

The orbit data is extracted from the following two-line orbital elements,

1 37779U 11042A   18023.14901311  .00000157  00000-0  00000+0 0  9997
2 37779   0.0438 240.6379 0003734  58.7816 274.6624  1.00273939 23520
Epoch (UTC): 23 January 2018 03:34:34
Eccentricity: 0.0003734
inclination: 0.0438°
perigee height: 35770 km
apogee height: 35801 km
right ascension of ascending node: 240.6379°
argument of perigee: 58.7816°
revolutions per day: 1.00273939
mean anomaly at epoch: 274.6624°
orbit number at epoch: 2352

The dashed part of the orbit path shows where the satellite is in the earth's shadow,  

DLR